Location: *
(42.0175°N, 9.4056°E)
Time: 15:43:12
(UTC+00:00)

FALCON 9 R/B - Pass Details

Date: 25 August 2019
Orbit: 284 x 10171 km, 34.5° (Epoch: 23 October)

Event Time Altitude Azimuth Distance (km) Brightness Sun altitude
Rises 22:06:01 0° 262° (W) 9,860 7.8 -34.4°
Reaches altitude 10° 22:15:44 10° 260° (W) 6,952 6.9 -35.1°
Enters shadow 22:28:29 39° 238° (WSW) 2,455 4.3 -35.8°
